Flag for Germany Weather past 2 weeks in Mannheim, Baden-Württemberg, Germany

Now
46 °F

Sunny.


Feels Like: 46 °F
Forecast: 38 / 56 °F
Wind: 1 mph from North

Location: Baden Wurttemberg - Neuostheim


UV Index: 3 (Moderate)

Visibility: 10 mi


Pressure: 30.27 "Hg

Humidity: 53%

Dew point: 30 °F

Location of MannheimLocation

Historic Weather in Mannheim

°F

Mannheim temperature yesterday

Maximum temperature yesterday: 57 °F (at 4:20 PM)
Minimum temperature yesterday: 36 °F (at 5:50 AM)
Average temperature yesterday: 49 °F

Past Weeks' High & Low Weather Summary

 TemperatureHumidityPressure
High75 °F (Apr 4, 4:20 PM)100% (Apr 5, 7:20 AM)30.42 "Hg (Apr 5, 7:20 AM)
Low34 °F (Apr 17, 6:50 AM)31% (Apr 2, 3:50 PM)29.62 "Hg (Apr 3, 5:50 PM)
Average58 °F55%30.04 "Hg
* Reported Apr 2 8:20 AM — Apr 17 8:20 AM, Mannheim, Weather by CustomWeather, © 2014

Note: Actual official high and low records may vary slightly from our data, if they occured in-between our weather recording intervals... More about our weather records

Advertising

Historic Weather Conditions — Data for Previous 24 hours

 ConditionsComfort  
Time TempWeatherWind HumidityBarometerVisibility
8:20 AM
Apr 17
45 °FSunny.1 mph57%30.30 "Hg10 mi
7:50 AM41 °FSunny.No wind70%30.30 "Hg10 mi
7:20 AM39 °FChilly.1 mph75%30.30 "HgN/A
6:50 AM34 °FClear.1 mph81%30.30 "Hg10 mi
6:20 AM36 °FClear.2 mph81%30.30 "Hg10 mi
5:50 AM36 °FClear.2 mph75%30.30 "Hg10 mi
8:50 PM
Apr 16
52 °FSunny.5 mph44%30.36 "Hg10 mi
8:20 PM54 °FSunny.2 mph41%30.36 "Hg10 mi
7:50 PM55 °FSunny.6 mph36%30.36 "Hg10 mi
7:20 PM57 °FPassing clouds.6 mph31%30.33 "HgN/A
6:50 PM57 °FPassing clouds.6 mph33%30.33 "HgN/A
6:20 PM57 °FPassing clouds.5 mph33%30.36 "HgN/A
5:50 PM57 °FPassing clouds.5 mph33%30.36 "HgN/A
5:20 PM57 °FPassing clouds.5 mph31%30.36 "HgN/A
4:50 PM57 °FPassing clouds.7 mph31%30.36 "HgN/A
4:20 PM57 °FPassing clouds.5 mph36%30.36 "HgN/A
3:50 PM55 °FPassing clouds.10 mph38%30.36 "HgN/A
3:20 PM55 °FPassing clouds.7 mph36%30.39 "HgN/A
2:50 PM55 °FPassing clouds.8 mph38%30.39 "HgN/A
2:20 PM54 °FPassing clouds.6 mph41%30.39 "HgN/A
1:50 PM55 °FScattered clouds.5 mph41%30.39 "HgN/A
1:20 PM54 °FPartly sunny.7 mph44%30.39 "HgN/A
12:50 PM52 °FScattered clouds.7 mph47%30.42 "HgN/A
12:20 PM52 °FScattered clouds.3 mph50%30.42 "HgN/A
11:50 AM50 °FScattered clouds.3 mph54%30.42 "HgN/A
11:20 AM50 °FScattered clouds.3 mph54%30.42 "HgN/A
10:50 AM48 °FPassing clouds.2 mph58%30.42 "HgN/A
10:20 AM46 °FPassing clouds.2 mph62%30.42 "HgN/A
9:50 AM45 °FSunny.2 mph61%30.42 "Hg10 mi
9:20 AM45 °FPassing clouds.5 mph61%30.42 "HgN/A
Weather by CustomWeather, © 2014

See weather overview